Temp
9 9 9 10 10 11 12 14 15 16 17 18 18 19 19 20 20 20 21 21 22 22 22 22 22 23 23 23 23 23 23 24 24 24 23 23 23 23 24 24 24 25 24 25 25 25 25 25 26 26 26 26 25 25 24 24 25 25 26 25 23 23 24 25 25 25 25 25 25 25 25 26 25 25 25 25 25 24 23 21 19 18 18 19 19 19 19 20
9 9 9 10 10 10 11 13 14 15 16 17 18 19 19 20 20 20 21 21 21 21 22 22 22 22 22 23 22 22 23 24 23 23 23 23 23 23 24 24 24 24 24 24 25 24 24 25 25 26 26 26 25 25 25 24 25 25 25 24 23 24 24 25 25 25 25 25 25 25 25 25 25 25 25 25 25 24 23 21 19 19 18 18 19 19 19 19
9 9 9 10 10 10 11 12 13 14 15 16 17 18 19 20 20 20 20 21 21 21 21 22 22 22 22 22 22 22 23 23 23 23 23 23 23 23 24 24 24 24 24 24 25 24 25 25 25 26 26 26 26 25 26 25 25 25 25 25 24 25 25 24 25 24 25 25 25 25 25 25 25 25 25 25 25 24 23 22 21 20 19 18 18 18 19 19
9 9 9 9 10 10 10 11 13 14 14 16 17 18 19 19 20 20 20 20 20 21 21 21 21 22 22 22 22 22 22 23 23 23 23 23 23 24 24 24 24 24 24 25 25 25 25 25 25 26 26 26 26 25 26 25 25 25 25 25 25 25 25 24 24 25 25 25 25 25 25 25 25 25 25 25 25 24 23 22 23 22 19 18 18 17 18 17
9 9 9 9 9 10 10 11 12 13 14 15 17 18 19 19 19 19 19 20 20 20 21 21 21 22 22 22 22 22 22 23 24 23 23 24 24 24 24 24 24 24 25 25 25 25 25 25 25 26 26 26 25 25 26 25 25 25 25 25 25 25 25 24 24 25 25 25 25 25 25 25 24 25 25 25 25 24 23 21 22 21 18 18 18 16 16 16
9 9 9 9 10 11 11 12 13 13 14 14 16 17 18 19 19 19 19 19 20 20 21 21 21 22 22 22 22 22 23 24 23 23 24 24 24 24 24 24 24 24 25 25 25 25 25 25 25 25 25 25 25 25 25 25 25 25 25 25 25 25 25 24 24 24 24 25 25 24 24 24 24 24 25 25 25 23 21 19 19 19 18 18 17 16 15 14
9 9 9 9 11 12 13 14 14 14 14 14 15 16 17 18 18 19 19 19 20 20 21 21 22 22 22 22 22 21 23 23 23 23 23 24 24 24 24 24 24 24 24 24 25 24 24 25 25 25 25 25 25 25 25 25 25 25 25 25 25 25 25 24 24 24 24 24 24 24 23 24 24 24 24 24 22 20 19 17 17 17 17 17 16 15 14 14
9 9 9 9 10 11 13 15 15 15 15 14 14 15 16 17 18 18 19 19 20 20 21 21 21 22 22 22 22 22 23 23 23 23 23 24 24 24 24 24 24 24 24 24 24 24 24 24 24 24 25 25 25 25 24 25 25 24 24 24 24 24 25 24 24 24 24 24 23 23 24 24 24 23 24 23 19 18 18 17 16 16 16 16 16 15 13 13
8 9 9 9 9 10 11 14 16 17 16 15 14 15 16 17 18 18 18 19 20 20 20 21 21 21 22 21 21 23 23 22 22 23 23 23 23 23 23 24 24 24 24 24 24 24 24 24 24 24 25 24 25 25 24 25 24 24 24 24 24 24 24 24 24 24 24 24 23 23 23 23 23 23 23 22 19 18 18 17 17 17 17 16 16 14 13 13
8 9 9 9 9 9 9 12 15 17 16 16 15 16 17 17 18 18 19 19 20 20 20 21 21 21 21 20 21 23 23 22 23 23 23 23 23 23 23 23 24 23 23 24 24 24 23 23 23 24 24 24 25 24 24 25 24 23 24 24 24 24 24 24 24 24 23 23 23 23 23 23 23 23 23 21 17 17 18 18 17 17 17 16 16 14 13 13
9 9 9 9 9 9 9 11 14 16 16 16 16 17 18 18 19 19 19 19 19 19 20 20 20 20 20 20 22 23 22 22 23 22 22 22 22 23 23 23 23 23 23 23 23 23 23 23 23 23 24 24 24 24 23 23 23 23 24 24 24 24 24 23 24 24 23 23 23 23 23 23 22 22 23 20 17 17 18 18 17 17 17 16 16 14 13 13
9 9 9 9 9 9 9 10 12 14 15 16 17 18 18 19 19 18 19 19 19 19 19 20 20 20 20 20 21 22 21 21 22 22 22 22 22 23 22 23 23 23 23 22 22 23 23 23 23 24 24 24 24 24 23 23 23 23 23 23 23 23 23 24 24 23 23 23 23 23 22 22 22 22 23 20 17 18 18 18 17 17 16 16 15 14 13 12
10 10 9 9 9 9 9 9 10 13 14 16 17 18 18 19 19 18 19 19 19 19 19 19 19 19 20 21 21 21 21 21 21 21 21 22 22 22 22 22 22 23 23 22 22 23 23 23 24 24 24 24 23 23 22 23 23 23 23 23 23 22 23 24 23 23 23 23 23 23 22 23 24 22 20 18 17 18 18 18 17 16 16 15 15 14 13 12
11 10 10 9 9 9 9 9 10 11 14 16 18 19 19 18 18 18 18 19 18 18 19 19 19 19 20 21 21 20 20 21 20 21 21 21 22 22 22 22 22 22 22 22 23 23 23 23 23 23 23 23 23 22 23 23 23 23 23 22 22 21 23 24 22 22 23 22 22 23 21 23 25 21 18 17 18 18 19 18 17 16 16 15 15 14 13 12
11 11 10 10 9 9 9 9 10 11 14 16 19 19 18 17 17 18 18 18 18 18 18 19 19 19 19 20 20 20 20 20 20 20 21 21 21 21 21 22 22 22 22 22 23 23 23 23 23 23 23 23 23 23 23 23 22 23 22 21 21 21 22 24 22 22 23 21 22 23 21 22 24 21 18 17 18 18 19 18 17 16 16 15 14 14 13 12
11 11 10 10 10 9 9 9 10 12 14 16 18 17 17 17 17 18 18 18 18 18 18 18 18 19 20 20 20 19 19 19 20 20 20 21 21 21 21 21 21 21 22 22 22 23 23 23 22 22 22 22 23 22 22 22 22 22 21 21 21 21 21 23 22 22 23 22 21 22 22 23 24 21 18 18 18 18 19 18 17 17 16 15 14 13 13 12
11 10 10 10 11 10 9 9 9 11 14 15 16 16 16 17 17 17 18 17 18 18 18 18 18 18 20 19 19 20 19 19 19 20 20 20 21 21 21 21 21 21 22 22 22 22 22 22 21 21 22 22 22 22 21 20 21 21 21 21 21 21 21 22 22 22 22 22 22 21 21 22 23 21 18 18 18 18 19 18 17 17 16 15 14 14 13 12
11 11 10 10 11 11 10 9 9 11 13 14 15 15 16 16 16 17 17 17 17 18 18 18 18 19 20 19 19 20 19 19 19 19 20 20 21 21 21 21 21 21 21 21 22 22 21 21 21 21 21 21 21 21 21 21 21 21 21 21 21 21 22 21 23 23 22 22 22 21 20 21 22 21 19 18 18 18 19 18 18 17 16 15 14 14 13 12
11 11 10 10 10 11 10 9 9 11 12 13 14 14 15 15 16 16 16 16 17 19 20 19 18 20 21 20 19 19 18 19 19 19 20 20 21 21 21 21 21 21 21 21 21 21 21 21 20 21 21 21 21 21 22 22 23 22 22 22 21 21 22 22 23 23 22 22 21 21 21 21 21 21 21 19 18 18 18 18 18 17 16 15 15 14 13 13
11 11 11 10 10 10 10 9 9 11 11 12 13 14 16 17 17 17 15 15 17 19 21 19 19 21 21 19 18 17 18 18 18 19 19 20 21 21 21 21 21 20 20 21 20 20 20 20 20 20 21 21 21 21 22 23 23 22 22 22 21 21 21 23 23 22 22 22 22 21 21 21 21 21 22 20 18 18 18 18 19 18 17 16 15 14 13 13
11 11 11 10 10 10 9 9 10 11 11 11 11 13 17 18 19 18 16 16 16 16 18 19 19 20 21 19 17 18 19 19 18 18 19 20 20 21 21 20 20 20 20 20 20 20 20 19 19 21 21 21 21 21 21 22 22 22 22 21 21 21 21 22 23 22 22 21 22 22 21 21 22 21 22 21 18 18 18 18 19 18 17 16 15 15 13 12
11 11 11 10 10 10 9 9 10 10 10 10 10 12 14 15 17 17 16 18 17 16 16 17 18 19 20 19 18 19 20 19 18 18 19 20 20 20 20 20 20 20 20 20 20 20 19 19 19 20 20 20 21 22 21 21 22 22 21 21 21 21 21 22 22 21 21 21 21 22 21 21 22 21 21 21 20 19 19 19 19 19 18 17 16 15 13 11
11 11 11 10 10 10 9 9 9 9 10 10 10 11 13 14 15 15 16 18 18 18 17 16 17 18 18 19 18 19 20 20 20 18 18 19 19 20 20 19 19 19 20 19 19 19 19 19 20 20 20 20 21 22 22 22 21 21 21 21 20 21 21 21 21 21 21 21 21 21 20 19 20 20 21 21 21 20 20 19 19 19 19 17 16 15 13 10
11 11 11 10 10 10 9 9 9 9 9 10 10 12 14 14 15 15 16 18 18 18 18 18 18 18 19 20 19 20 20 21 21 19 18 19 19 19 20 20 19 19 19 20 19 19 20 21 22 21 20 20 21 21 22 22 21 21 21 21 21 21 21 21 21 20 20 20 20 20 19 19 20 20 20 20 20 21 20 19 19 19 19 18 16 15 13 10
11 11 11 10 10 10 9 9 9 9 10 9 11 13 14 14 15 15 16 18 18 18 18 18 19 19 20 20 20 20 20 21 22 19 18 19 20 20 20 20 20 19 19 20 19 19 19 21 22 21 20 20 20 21 22 22 21 21 21 21 21 21 21 21 21 20 20 20 20 20 19 20 20 20 20 20 20 21 21 20 20 19 19 18 16 15 12 10
11 11 11 10 10 10 9 9 10 10 10 10 12 14 14 14 14 15 17 18 17 18 19 19 20 20 21 19 19 20 20 20 20 19 18 19 20 21 20 20 20 20 20 20 20 19 20 21 21 22 21 20 20 20 21 21 20 20 20 21 21 21 21 20 20 20 20 19 19 19 19 19 19 20 21 21 21 22 21 19 19 19 18 17 16 14 12 10
11 11 11 10 10 10 9 10 10 10 10 11 14 15 15 15 14 15 17 18 17 19 19 18 19 20 20 19 19 20 20 19 18 18 18 19 20 21 20 20 20 20 21 21 20 20 20 21 21 21 21 21 20 20 20 20 21 20 19 20 21 21 20 20 20 20 19 19 18 19 19 18 18 19 21 21 21 21 20 20 19 18 17 16 15 13 12 10
12 11 11 11 10 10 10 11 10 10 11 13 15 15 15 15 14 15 18 17 18 20 19 17 18 19 19 18 19 20 18 19 19 18 17 18 19 20 20 20 20 20 21 22 20 19 20 21 21 21 21 20 20 21 20 20 21 20 19 19 20 20 20 20 20 19 18 18 18 18 19 18 18 19 20 20 20 20 21 20 19 18 16 15 14 13 11 10
12 11 11 11 11 10 10 11 10 11 13 14 15 14 14 14 14 17 17 18 20 20 19 18 18 18 18 18 19 19 17 18 18 17 16 18 18 19 19 19 20 20 21 21 20 20 20 19 20 21 20 20 20 19 19 20 21 19 18 19 19 19 19 19 19 19 18 17 17 18 18 18 18 20 20 20 20 21 21 21 20 19 16 14 13 12 11 10
12 12 11 11 10 10 10 10 10 13 14 14 14 13 14 14 16 17 16 17 21 19 17 17 18 17 17 17 17 18 18 17 16 16 17 18 17 18 19 19 20 20 20 20 19 19 18 16 17 19 20 19 18 17 16 18 20 18 19 20 19 18 18 18 18 18 17 16 17 18 18 18 18 19 20 20 21 21 21 21 21 19 17 14 13 12 11 10
12 11 11 11 10 10 10 10 11 12 13 13 13 13 14 15 16 16 16 18 21 18 16 16 17 17 17 17 17 17 18 16 15 16 17 17 17 18 18 19 19 19 18 19 18 17 17 17 18 18 18 17 18 18 16 16 17 19 19 19 19 18 18 17 17 16 16 16 18 18 18 17 17 19 20 21 21 21 22 22 22 20 17 14 13 12 10 10
12 11 11 11 10 10 10 10 11 12 12 13 13 13 15 15 15 16 17 20 20 18 17 17 16 16 17 17 18 17 17 16 16 17 16 16 17 17 18 18 18 18 18 18 17 17 17 17 18 17 17 17 19 18 17 16 17 18 19 18 18 18 17 17 16 16 16 16 17 17 16 16 17 19 20 21 21 21 21 22 21 21 18 15 13 11 10 9
12 11 11 11 10 10 10 11 12 12 12 13 13 14 15 15 15 16 18 20 20 18 18 17 16 16 17 17 17 17 17 16 15 16 17 16 16 16 17 17 18 19 19 17 17 17 17 17 17 17 17 18 19 19 17 17 17 17 18 18 18 17 16 17 16 16 16 17 17 16 16 16 17 19 20 21 21 21 20 19 19 20 19 15 12 11 10 9
12 11 11 11 10 10 10 11 12 12 12 12 12 14 14 13 15 17 17 19 19 18 17 17 16 16 16 17 17 17 17 16 15 16 16 16 15 15 16 17 17 18 18 17 16 17 17 17 17 18 18 18 18 19 18 17 16 17 18 18 18 18 18 18 17 17 18 17 16 16 16 17 19 20 19 18 18 17 17 17 16 17 16 14 11 10 9 9
12 11 11 10 10 10 10 11 12 12 12 12 12 13 13 13 15 16 17 18 19 18 17 16 16 15 16 16 16 17 17 16 15 16 16 15 16 15 16 16 16 17 18 18 17 16 17 18 18 17 17 18 18 19 18 17 16 16 17 17 17 18 20 19 17 17 17 17 16 16 17 18 18 19 17 16 16 16 15 15 16 15 13 12 11 10 9 8
11 11 11 10 10 10 10 11 11 11 12 12 12 12 13 15 16 16 17 18 19 18 16 16 16 15 15 16 16 16 17 16 15 15 15 15 16 16 16 17 16 17 19 19 18 17 17 17 16 16 16 17 17 18 18 18 18 16 16 17 17 18 19 19 17 16 16 17 16 16 17 18 18 19 19 18 17 17 16 15 15 14 12 11 11 9 9 8
11 11 11 10 10 11 11 11 11 11 11 12 12 12 13 15 16 17 18 19 19 19 17 16 17 16 15 15 15 16 16 17 16 15 15 15 16 16 16 17 17 17 19 20 19 18 18 17 15 15 16 15 15 17 18 18 18 17 16 17 17 17 18 18 17 16 16 16 16 17 18 18 19 19 19 17 17 18 18 15 14 13 11 11 11 9 8 8
11 11 11 11 11 11 11 11 11 10 11 12 11 12 13 13 16 17 17 18 19 19 18 17 17 17 16 15 15 15 16 17 15 15 16 15 16 18 17 17 17 17 18 20 20 19 20 19 16 14 15 15 15 16 17 16 16 17 17 17 17 17 17 17 17 17 16 16 17 17 17 18 18 19 19 18 18 20 19 16 14 13 11 11 10 9 8 8
11 11 11 12 11 11 11 11 10 11 12 12 11 12 13 13 14 16 16 17 19 18 18 18 18 18 17 16 16 15 16 16 15 15 16 16 16 18 17 18 18 17 18 19 19 20 20 20 17 13 14 15 15 16 16 16 16 16 16 16 17 17 17 17 17 17 17 17 17 18 18 18 18 19 20 20 21 22 20 17 15 14 12 11 10 9 8 8
11 11 12 13 12 11 10 10 10 11 12 12 11 12 13 14 14 15 16 16 18 18 18 18 18 18 18 17 16 16 16 16 15 15 16 16 16 17 17 18 18 17 18 19 19 19 19 19 18 14 13 14 15 16 16 16 16 16 16 16 16 17 16 17 17 17 17 18 18 17 18 19 19 19 21 21 22 22 20 18 17 14 12 11 10 9 8 7
11 11 12 13 13 11 10 10 11 12 12 11 11 12 13 14 14 14 15 16 17 18 18 18 18 18 18 17 17 16 16 15 15 15 16 16 17 18 18 18 18 17 17 18 18 19 19 18 17 14 13 14 15 16 16 16 16 16 16 16 16 17 17 17 17 16 17 17 18 17 18 20 20 19 20 21 21 21 19 19 19 16 13 12 10 9 9 8
11 12 12 13 12 11 10 11 12 12 12 11 11 12 12 13 14 14 15 15 15 16 17 18 18 18 19 18 17 16 16 15 15 15 16 16 17 18 18 18 19 18 17 17 17 18 18 18 17 15 13 14 15 15 15 16 17 16 16 16 17 17 17 18 18 17 17 17 17 17 16 19 18 16 18 19 19 19 19 18 18 17 14 12 10 10 9 8
11 12 12 12 11 11 11 12 12 12 11 11 11 12 12 13 13 14 14 14 14 15 16 17 18 18 18 18 18 17 16 16 16 15 16 16 16 18 19 18 19 18 18 18 17 18 18 18 17 16 14 14 15 15 15 15 16 16 16 16 16 16 17 18 18 17 17 17 17 16 16 18 18 15 16 16 16 17 18 17 18 17 14 12 11 10 9 8
11 11 11 10 11 11 11 12 12 11 11 11 11 11 12 13 13 14 14 14 14 15 15 16 17 18 18 19 19 18 17 17 17 16 17 17 17 18 19 18 18 18 18 18 18 18 18 17 17 16 15 15 15 14 14 14 15 16 16 16 16 16 17 17 17 16 17 17 17 17 17 19 18 16 15 16 16 17 17 16 16 16 14 12 11 10 9 8
11 11 11 10 10 11 12 13 12 10 10 11 11 11 11 12 13 13 14 15 15 16 16 16 17 18 18 19 19 18 18 18 18 17 17 17 17 18 18 18 18 18 18 19 18 18 18 17 17 16 16 16 16 16 15 14 14 15 16 15 15 16 16 17 17 16 16 17 17 17 18 19 18 17 17 17 17 18 18 16 15 15 14 12 11 10 9 8
11 11 11 11 11 11 12 13 13 11 11 11 11 11 11 11 12 13 14 14 15 16 16 16 16 17 17 18 18 18 18 18 18 17 16 17 17 17 17 17 18 18 18 18 18 18 17 16 17 17 17 18 18 18 16 15 15 15 15 15 15 15 16 16 16 16 16 16 16 17 18 18 18 18 19 19 17 18 18 17 16 14 13 11 11 10 9 8
10 11 12 12 12 11 11 12 12 12 12 11 11 12 11 11 12 13 13 14 15 15 16 16 16 16 17 17 16 17 18 18 18 17 17 17 17 16 15 16 17 17 18 17 17 17 17 16 16 17 18 19 19 18 16 16 16 16 15 15 15 15 15 15 15 16 17 16 16 17 18 18 18 19 20 20 18 17 18 17 16 14 12 11 10 9 9 8
10 11 12 12 12 12 12 11 12 12 12 12 12 12 12 11 11 12 13 13 14 15 15 15 16 16 17 17 16 16 17 17 17 17 17 16 16 15 15 16 16 15 16 17 16 16 17 17 16 16 17 18 19 18 16 16 16 16 15 15 15 15 14 15 15 16 17 16 17 18 18 18 19 19 19 19 19 19 19 17 15 13 12 11 10 10 9 8
9 10 11 11 11 12 11 11 11 11 12 12 12 12 13 12 12 12 13 13 13 14 14 14 15 16 16 17 17 16 17 17 17 17 17 16 16 16 16 16 14 13 14 16 15 14 16 18 17 16 16 17 17 17 16 16 16 16 15 15 15 15 14 15 15 16 16 17 18 18 18 18 19 19 19 19 19 18 17 15 13 13 12 11 10 10 9 8
9 9 9 10 10 10 10 10 10 11 11 12 12 12 13 13 13 13 14 13 13 13 14 14 15 16 16 17 17 17 17 18 18 18 18 16 16 15 16 16 15 14 14 15 14 13 15 16 16 15 15 15 16 16 16 16 16 16 15 15 15 15 15 14 15 15 16 16 17 17 17 17 18 19 20 18 17 16 16 15 14 13 11 10 10 10 9 9
8 8 8 8 10 10 10 10 10 11 11 11 12 12 13 13 13 13 14 14 14 14 14 14 15 16 16 16 16 17 17 18 18 18 18 17 17 16 16 16 16 15 13 13 13 13 14 14 14 14 14 15 16 15 14 15 15 14 15 15 15 15 14 14 15 15 15 16 16 16 15 16 18 19 18 17 17 17 16 16 15 12 11 10 10 10 10 9
8 7 7 7 9 11 10 10 10 10 11 11 11 12 12 12 13 14 13 13 14 14 14 15 15 15 14 15 15 17 17 18 18 17 17 18 17 17 17 16 15 15 14 13 12 13 13 14 14 14 14 15 16 15 14 14 13 13 14 15 16 15 15 14 15 15 15 16 16 15 16 17 18 18 18 17 17 17 16 16 15 13 11 10 10 11 10 10
Height
815 815 815 815 815 814 814 814 814 814 814 814 814 815 815 815 815 816 816 816 816 816 816 816 815 815 815 814 814 813 813 812 812 811 811 812 811 811 812 812 812 812 812 812 811 811 809 809 809 808 809 809 811 812 812 812 812 817 825 833 838 841 839 833 832 831 830 833 832 830 830 832 835 832 829 829 831 835 837 839 841 841 840 842 842 843 843 844
814 814 814 814 814 814 814 813 813 813 814 814 814 814 814 815 815 815 815 815 815 815 815 815 815 815 814 814 813 812 812 812 811 811 811 811 811 811 812 812 812 812 812 812 811 811 811 811 809 809 810 813 813 813 814 814 814 821 829 835 839 838 834 830 829 828 829 831 831 830 830 831 833 832 830 833 836 836 839 842 843 843 844 844 843 843 843 843
813 813 813 813 813 813 813 813 813 813 813 814 814 814 814 814 815 815 815 815 815 815 815 814 814 814 814 813 812 813 812 811 812 812 812 811 811 811 812 812 812 813 812 812 811 811 811 811 809 810 813 815 815 815 817 816 818 822 828 836 837 831 830 829 827 828 827 827 829 830 829 830 831 830 830 833 836 837 839 841 842 843 845 845 844 843 843 843
812 812 812 812 813 813 813 813 813 813 813 813 813 813 814 814 814 814 814 815 814 815 814 814 814 813 814 813 813 813 811 813 815 813 812 812 812 812 812 813 813 813 813 812 812 811 811 810 810 811 814 818 816 816 819 819 820 823 826 833 831 827 830 829 827 827 826 826 829 830 831 832 830 829 830 832 837 839 838 837 836 837 841 843 843 843 843 843
812 812 812 812 812 812 812 813 812 813 813 813 813 813 813 813 813 814 814 814 814 814 814 814 814 813 813 812 813 811 812 820 818 811 812 812 812 813 813 814 814 814 813 812 812 811 811 810 810 812 816 820 820 820 822 819 819 824 826 827 826 826 830 829 826 826 826 826 829 830 832 832 829 829 829 831 836 836 835 834 832 833 838 840 841 842 843 843
812 812 812 811 811 811 811 812 812 812 812 812 812 812 813 813 813 814 814 814 814 814 814 814 813 813 813 812 812 811 814 822 816 810 813 812 812 813 813 814 814 814 814 813 812 811 812 811 813 817 819 821 822 823 823 819 819 826 829 826 825 825 827 827 825 826 826 827 829 830 830 830 831 832 829 830 832 832 832 833 832 833 836 838 840 841 842 843
812 811 811 811 810 811 810 811 811 811 812 812 812 812 813 813 813 814 813 814 813 813 813 813 813 813 812 812 812 811 814 816 811 811 813 812 813 813 814 815 814 815 814 813 813 813 813 814 816 818 820 822 824 823 823 820 820 827 830 827 826 825 825 826 825 826 826 827 829 828 829 830 832 832 829 829 832 832 833 833 833 834 836 838 840 841 842 843
811 811 810 810 810 810 810 810 810 811 811 811 812 812 813 813 813 813 813 813 813 813 813 813 813 812 812 812 812 814 815 813 810 812 812 812 814 813 814 814 814 815 814 814 814 814 814 817 818 818 821 824 822 823 823 823 825 828 830 828 826 826 825 825 825 826 826 827 828 828 830 830 830 830 829 830 833 833 833 833 834 835 836 838 839 841 842 842
810 810 810 810 810 810 810 810 810 810 811 811 812 812 813 813 813 813 813 813 813 813 812 812 812 812 812 812 813 816 815 810 810 812 812 813 814 814 814 814 814 814 814 814 814 814 816 818 818 817 821 823 821 823 823 826 830 829 828 828 827 827 825 825 825 826 827 826 827 829 831 830 828 830 829 828 831 833 833 834 835 836 837 838 840 840 841 842
809 809 809 810 810 810 810 810 810 810 811 811 811 812 812 813 813 813 812 812 812 812 812 812 812 812 812 812 814 817 813 810 811 812 812 813 813 814 814 814 815 814 814 814 814 815 815 817 817 814 818 821 821 824 824 826 829 827 827 828 827 827 825 825 825 825 826 827 827 829 832 829 828 831 830 828 831 832 833 835 835 836 837 838 839 840 841 841
809 809 809 809 809 810 810 810 810 810 810 810 811 812 812 812 812 812 812 812 812 812 812 812 812 812 812 812 816 816 811 810 811 811 812 813 813 813 813 814 814 814 815 814 814 814 815 816 814 814 819 822 823 825 825 825 826 826 827 828 827 826 826 826 825 825 826 827 826 828 831 830 831 831 826 826 831 831 832 834 835 836 837 838 839 840 841 841
808 809 809 809 809 810 810 810 809 809 810 810 810 810 811 811 811 811 811 812 812 812 812 812 812 812 812 814 815 813 810 811 811 811 812 812 813 813 813 814 814 814 814 814 815 814 814 814 813 817 821 821 825 828 827 824 825 826 827 831 830 828 827 824 823 824 825 828 825 828 834 833 831 828 822 825 830 830 832 833 834 836 836 837 838 840 841 841
808 808 809 809 809 810 810 810 809 809 809 809 809 809 810 810 810 811 811 811 812 812 812 812 812 812 813 814 812 810 810 810 810 811 812 812 813 813 813 814 814 814 814 814 815 814 815 814 814 818 819 821 826 828 826 824 825 827 829 833 834 834 830 822 822 823 825 828 824 829 839 833 825 825 824 827 829 829 832 833 834 835 836 837 838 839 840 840
807 808 808 809 809 810 810 810 810 809 809 808 808 809 809 809 810 810 810 811 811 812 812 812 813 812 814 813 809 809 810 810 810 810 811 812 812 813 813 814 814 814 814 814 815 814 815 814 815 817 818 821 824 824 826 827 828 830 832 834 838 843 835 822 823 824 826 830 824 830 844 832 820 825 829 828 827 828 830 832 833 834 835 836 837 839 839 839
806 807 807 808 809 809 809 809 809 808 808 807 807 808 808 809 809 809 810 811 811 812 812 812 812 813 815 813 809 809 810 809 810 810 811 811 812 812 813 813 814 814 814 815 814 815 815 814 816 820 822 822 823 827 832 833 832 832 837 840 842 844 836 825 824 824 826 831 827 831 843 834 820 823 828 829 828 827 829 831 832 833 834 835 836 838 839 839
805 806 806 807 808 808 808 808 808 807 807 807 807 807 808 808 809 809 810 810 811 811 811 813 812 813 817 813 809 809 809 809 809 810 811 811 811 812 813 813 814 814 815 815 815 815 815 816 819 822 824 824 827 833 838 841 839 837 840 843 841 842 840 831 826 824 824 829 830 832 836 831 821 822 827 828 829 828 828 830 830 831 832 833 835 836 838 839
804 804 804 805 806 807 807 807 807 806 806 806 807 807 807 808 808 809 810 810 811 811 811 813 812 814 815 811 809 809 807 807 808 809 810 811 811 812 812 813 814 815 815 815 816 816 816 819 823 825 826 828 830 834 844 850 845 841 842 843 840 840 841 837 830 825 825 828 831 833 834 829 820 823 827 826 826 828 827 827 827 828 829 830 833 834 836 837
803 803 803 803 804 805 806 806 806 806 806 806 806 806 807 807 808 809 810 810 811 812 813 813 814 817 814 808 807 806 804 806 807 808 810 810 811 812 812 813 814 815 817 818 818 819 821 823 826 830 832 833 833 837 846 846 839 838 842 842 841 838 837 837 832 825 826 829 831 835 837 830 822 822 825 825 825 826 824 823 824 824 826 828 830 831 833 834
801 802 802 802 802 803 804 805 806 806 806 806 806 806 807 808 809 809 809 810 811 811 811 810 810 814 810 804 803 804 804 805 806 808 809 810 811 812 812 813 814 816 820 824 824 822 823 828 832 836 837 835 834 835 836 832 829 833 836 837 839 838 835 832 827 823 824 830 832 833 833 828 823 821 820 822 824 824 823 822 823 823 824 826 827 828 829 830
800 801 801 801 802 802 802 804 805 806 807 806 806 806 806 808 810 810 811 811 807 803 803 803 803 804 804 802 803 804 805 806 807 808 808 809 810 812 813 814 816 820 823 826 826 824 825 833 838 835 832 831 830 830 827 826 827 830 833 835 837 839 836 828 824 822 822 829 831 828 830 827 823 820 815 818 823 824 824 822 821 821 822 823 824 825 826 828
798 800 800 801 801 801 802 803 804 806 806 807 807 806 805 806 808 809 810 808 802 799 799 800 800 800 800 801 802 802 804 807 808 807 808 809 809 813 815 816 821 826 825 825 826 825 827 837 838 829 825 826 826 826 826 828 829 830 833 836 837 838 835 827 824 823 822 829 829 825 829 826 820 818 814 815 821 821 819 818 816 816 818 819 820 822 824 827
797 798 799 801 801 801 802 802 804 805 806 807 807 807 805 805 805 805 806 806 800 797 798 798 800 801 799 799 800 800 802 807 809 808 807 808 810 813 815 818 824 826 824 826 829 831 835 838 833 825 823 825 824 824 827 829 829 831 834 837 838 836 834 829 826 825 824 828 829 825 828 825 817 815 813 811 813 812 809 809 808 809 813 815 817 819 823 827
796 797 799 800 800 802 802 802 804 805 806 806 806 806 805 804 804 804 806 807 801 795 795 797 798 799 799 799 799 799 802 804 807 808 807 808 810 812 814 819 823 824 825 828 831 836 839 833 823 821 824 825 825 824 825 828 829 830 833 837 838 835 836 835 830 827 826 827 828 827 829 826 818 815 811 806 805 803 803 804 804 804 806 807 809 812 816 821
793 795 798 798 801 802 802 803 804 804 805 806 806 804 804 805 805 805 805 806 802 793 789 790 790 791 793 794 794 797 800 798 799 803 804 806 809 811 813 815 821 826 825 824 827 831 829 819 812 817 822 824 826 825 824 827 830 829 829 833 834 833 833 834 831 830 829 829 827 830 832 824 816 815 810 803 803 802 801 802 803 802 802 803 806 809 812 816
791 794 796 797 800 800 802 804 803 804 805 805 804 801 803 804 804 805 805 807 804 793 787 786 786 785 785 789 792 793 798 796 793 796 799 801 804 808 811 811 816 825 824 822 826 828 823 814 811 816 822 824 826 826 823 825 830 831 827 825 827 827 828 830 832 833 836 837 830 833 839 825 810 812 809 803 804 801 799 800 799 797 799 801 804 807 812 815
789 792 793 796 798 800 803 802 801 804 805 803 800 800 804 803 804 805 805 813 809 792 787 786 783 780 779 786 790 792 801 797 790 791 794 797 797 799 809 810 810 817 818 818 822 821 816 811 811 815 820 823 826 826 822 822 831 836 828 822 823 826 829 831 832 835 841 842 834 833 843 834 814 809 807 802 801 797 797 799 795 794 796 798 800 804 809 814
785 788 791 794 796 798 800 798 799 802 802 800 796 800 803 801 806 804 807 824 810 780 781 785 780 777 776 781 784 791 803 795 789 794 793 796 796 795 805 810 809 812 810 814 822 817 809 810 813 815 817 822 826 825 821 821 829 834 827 823 824 825 831 831 831 837 840 840 839 835 840 841 825 810 802 800 801 799 797 797 793 793 796 797 800 803 806 810
781 785 788 790 792 795 795 795 796 797 797 796 794 800 801 801 807 803 812 830 800 766 774 781 777 774 775 779 780 786 793 787 790 798 793 795 797 796 803 806 806 808 803 810 823 816 807 810 812 813 817 822 822 819 817 819 825 829 825 823 824 825 830 831 832 839 841 844 847 840 839 844 828 807 800 799 803 802 794 791 789 791 795 797 800 803 805 809
777 781 783 787 791 793 794 794 793 791 792 794 795 799 799 803 806 803 820 822 781 761 773 775 776 777 778 783 783 785 789 789 793 796 794 796 797 797 803 802 802 807 804 805 814 812 808 811 809 809 814 818 818 818 818 817 820 825 825 824 826 828 830 833 836 840 845 850 850 842 841 843 823 801 799 801 801 798 788 784 783 785 791 796 799 803 805 808
774 776 779 785 787 788 791 793 790 788 791 794 796 797 800 804 805 814 831 808 768 767 777 774 777 780 780 786 790 789 789 794 796 796 797 798 798 798 800 800 801 807 808 807 811 813 812 813 812 810 811 813 816 822 824 820 818 822 825 825 830 835 835 838 841 843 851 851 844 836 835 839 829 806 796 795 790 785 782 781 779 781 788 794 797 801 803 806
771 773 776 779 779 781 785 786 785 786 790 792 794 798 802 805 807 818 818 785 763 773 778 778 781 780 780 785 789 790 791 797 797 796 800 801 802 803 802 804 807 812 817 814 815 817 815 815 813 810 811 813 816 821 824 824 822 821 825 829 836 841 842 846 849 852 857 848 833 829 829 837 835 809 791 786 781 778 778 777 776 778 785 791 793 797 801 803
768 769 772 773 775 777 777 776 779 784 788 789 792 796 800 809 813 809 793 771 769 773 771 777 780 779 781 780 782 786 790 796 797 795 799 802 804 803 801 803 806 814 821 819 819 821 818 816 813 812 813 811 812 821 827 827 826 825 827 834 842 849 852 854 855 856 856 843 829 829 833 835 824 801 788 785 779 776 775 774 774 775 781 787 791 795 798 802
764 765 768 769 771 773 773 776 780 783 784 787 791 792 798 809 806 793 780 768 767 766 765 771 775 776 781 782 784 786 787 793 796 795 796 800 805 803 799 799 798 802 809 815 822 823 821 819 816 815 813 807 807 817 826 827 827 827 827 832 842 853 859 858 855 853 847 836 829 832 836 831 814 794 784 780 774 774 775 776 777 774 776 783 788 793 797 800
761 763 765 766 768 770 774 779 780 779 782 786 790 792 800 806 792 778 774 765 760 763 765 769 774 779 781 781 783 783 787 794 794 795 797 800 806 806 803 801 798 797 801 813 820 821 822 818 811 809 807 803 802 805 810 817 824 825 821 825 833 839 843 843 843 841 836 831 832 836 832 820 804 788 781 780 779 779 780 780 779 777 779 783 788 794 797 800
759 762 763 764 767 768 773 778 778 777 779 783 789 790 793 794 783 772 767 759 758 764 767 770 775 783 785 783 782 779 782 792 794 795 798 799 800 800 797 795 795 795 799 808 813 816 819 810 799 800 798 798 800 799 801 812 824 826 821 826 829 823 821 828 834 833 832 834 835 832 821 804 792 782 781 786 784 782 783 781 779 781 784 787 791 794 797 799
757 759 761 762 763 764 769 775 777 777 774 777 787 786 778 770 762 758 754 750 755 762 770 776 777 784 789 786 785 782 779 785 793 797 798 797 795 792 789 785 787 790 787 793 803 808 814 809 801 802 802 800 801 799 800 806 815 824 826 825 822 816 814 824 835 835 835 836 827 819 810 799 791 780 773 780 781 780 783 782 781 784 787 789 790 793 795 797
754 755 756 756 756 759 764 770 776 777 773 773 778 775 768 757 746 746 746 744 748 755 768 776 774 778 786 786 785 784 781 783 791 794 796 798 791 782 784 781 779 781 776 779 789 791 797 805 805 805 805 805 805 803 802 802 806 819 824 818 815 819 819 824 835 837 839 837 823 812 806 798 795 784 773 779 782 777 776 780 783 787 789 789 788 791 794 795
751 753 751 748 749 755 760 766 772 775 772 772 773 766 762 755 741 739 742 741 744 752 761 767 765 765 774 780 781 781 780 782 789 793 792 794 782 767 773 777 773 775 771 774 783 781 784 797 807 810 808 807 806 805 808 808 806 810 812 809 813 823 826 828 834 835 837 836 821 810 805 794 789 782 773 776 778 769 768 776 782 784 785 786 787 790 793 795
750 751 745 740 745 751 756 760 767 771 768 767 769 762 751 744 738 738 743 743 744 750 753 753 754 758 764 769 774 777 778 777 785 789 784 784 777 761 761 766 768 772 772 774 780 778 780 790 803 811 810 808 807 807 812 813 810 810 811 811 811 815 820 822 825 824 827 829 818 808 800 785 774 769 764 765 764 759 761 771 776 776 778 783 785 788 791 793
747 747 738 733 740 748 754 759 762 765 762 759 759 752 742 740 741 743 744 744 743 744 747 745 748 755 757 760 765 769 773 774 779 781 775 773 771 761 757 759 764 771 771 773 776 776 780 786 797 811 815 811 807 803 802 803 805 809 812 814 813 814 817 818 816 814 815 819 816 811 797 775 763 760 755 755 754 753 758 762 765 769 773 778 781 783 786 789
744 742 733 730 736 743 752 757 755 754 756 757 755 749 745 743 743 743 741 743 742 739 740 742 745 749 750 755 760 761 767 772 775 776 772 767 764 758 754 753 758 766 772 778 778 775 780 784 793 810 815 808 800 795 792 791 793 797 801 803 805 808 813 817 817 812 810 809 807 809 796 767 755 757 752 750 751 750 755 756 756 763 769 772 776 779 782 784
741 736 728 727 731 738 748 750 746 748 751 751 746 745 746 743 742 742 741 744 746 742 740 739 740 741 742 747 753 756 762 767 770 771 765 759 756 751 748 747 751 758 765 772 772 767 773 782 790 803 808 803 797 795 795 792 790 793 796 796 799 800 800 805 809 808 809 804 799 809 801 766 754 760 755 752 752 750 754 756 756 759 764 769 773 776 779 782
736 730 725 725 726 732 743 742 739 743 743 738 738 741 744 742 742 742 741 744 747 745 744 740 737 738 738 739 746 752 756 758 760 760 755 754 752 746 745 745 748 754 758 764 768 768 773 780 788 798 803 800 798 796 795 794 793 796 797 796 798 796 791 792 796 799 804 798 797 812 802 766 755 763 759 758 758 754 755 757 756 759 763 767 771 773 778 781
730 728 726 727 725 726 733 733 734 741 740 737 741 744 743 740 740 739 737 739 740 739 742 739 735 735 735 734 738 744 748 749 750 749 748 751 748 741 742 743 745 751 753 756 761 765 773 781 788 798 803 802 802 802 800 799 797 796 794 793 794 791 791 793 796 801 800 789 792 805 790 760 755 761 760 759 758 754 756 758 757 759 762 766 770 773 777 780
727 727 725 726 725 722 720 719 726 737 740 739 740 742 742 740 736 734 734 734 733 733 735 733 730 731 732 732 734 737 738 737 738 743 746 747 743 738 740 741 741 744 745 746 747 752 764 774 778 788 795 793 788 787 790 795 797 794 790 790 790 789 791 791 795 802 796 784 788 790 773 757 756 757 756 756 756 754 754 757 758 758 760 764 768 772 775 778
724 724 722 722 722 719 713 710 716 725 731 736 737 736 739 738 731 730 733 733 731 730 729 727 729 733 734 735 736 736 734 732 734 740 743 743 741 740 740 740 740 740 741 744 747 751 762 768 765 767 770 767 762 763 770 779 787 788 784 784 786 786 786 789 793 792 785 787 786 771 761 760 756 754 752 751 754 754 752 754 757 758 761 764 766 769 771 774
721 716 714 715 716 715 713 711 713 715 718 725 727 726 729 731 729 729 732 731 727 727 727 726 730 734 734 735 738 735 732 733 735 737 738 739 740 742 743 741 741 741 742 745 748 751 761 766 762 758 755 750 747 753 763 768 772 774 776 780 782 783 785 789 787 774 773 788 779 755 758 763 750 747 749 745 750 754 750 752 754 756 760 762 764 768 770 773
718 709 705 706 708 708 709 710 711 711 710 714 716 714 717 724 727 728 727 726 724 725 727 728 727 727 725 726 732 735 733 735 736 734 734 737 740 743 743 743 745 746 745 746 748 751 755 758 757 757 756 748 743 749 760 763 762 765 770 773 774 779 782 779 773 764 769 779 764 746 756 754 738 741 745 741 744 744 741 746 751 755 760 762 764 767 768 771
715 709 704 704 705 704 705 708 710 711 709 709 710 707 708 713 717 717 717 721 724 723 724 726 721 717 717 720 726 731 731 732 732 728 729 734 737 740 742 744 748 751 749 748 751 754 753 750 751 756 757 751 745 748 756 761 762 763 766 767 767 769 768 765 764 764 768 767 751 744 754 745 732 737 739 735 739 739 740 748 751 754 758 760 763 764 765 768
713 710 707 706 705 704 705 708 710 710 707 706 705 701 700 702 704 706 707 712 717 717 717 718 713 710 713 717 720 720 718 717 718 716 720 729 735 736 737 738 741 748 751 750 753 757 756 752 752 757 761 755 748 750 757 760 760 760 762 763 760 758 759 763 765 764 766 762 748 750 758 744 730 733 734 735 740 743 745 747 747 750 755 757 760 761 762 764
710 708 709 710 705 701 703 705 706 707 705 703 702 699 697 695 693 697 700 699 701 705 708 708 706 707 712 714 715 712 706 704 706 707 712 719 724 725 726 728 732 741 750 752 753 755 758 758 757 761 765 755 745 752 761 761 763 767 763 753 748 752 758 762 760 755 756 755 753 760 758 738 726 732 735 736 739 739 740 741 744 749 752 754 755 755 757 759
708 707 709 712 704 696 697 701 703 704 701 697 698 698 698 695 692 694 699 699 697 699 701 701 702 708 714 714 711 704 700 700 705 709 711 712 713 716 719 723 727 733 742 750 754 754 755 756 756 760 762 752 743 751 760 764 770 769 751 734 734 745 753 754 751 748 747 748 751 752 740 724 725 732 733 734 736 735 736 738 740 744 749 752 751 749 752 754
Wind_Speed
2 2 1 1 1 1 1 1 1 2 2 2 2 2 2 2 3 3 3 3 2 3 3 4 4 5 6 7 8 10 10 9 7 5 2 1 3 2 1 1 2 3 2 3 6 9 9 5 2 4 3 1 2 1 3 2 2 5 3 4 2 0 1 1 1 2 4 5 4 4 3 6 3 1 0 2 5 4 5 6 4 6 7 6 8 8 7 7
2 2 1 0 1 1 1 1 0 1 1 1 1 2 2 3 3 3 3 2 2 2 2 3 4 5 6 7 9 10 11 9 5 4 2 2 0 2 3 3 3 3 2 4 7 9 8 5 6 7 5 1 2 2 2 2 3 4 3 4 1 3 1 1 3 3 3 6 5 3 4 6 6 3 1 0 1 3 5 3 4 6 5 5 8 10 10 12
2 2 1 0 1 2 1 1 1 0 1 1 1 2 2 3 3 2 2 1 1 1 2 3 4 5 6 8 9 10 10 7 3 2 2 3 4 4 4 4 3 2 2 4 6 8 6 6 8 5 3 1 1 2 3 2 2 2 4 4 3 4 1 2 4 4 2 6 6 2 4 4 3 2 2 2 1 2 5 3 3 4 4 5 6 11 13 14
2 1 1 0 1 2 2 3 2 1 1 0 1 2 2 2 2 2 1 1 0 1 2 3 4 5 6 8 9 10 8 4 1 1 2 5 5 5 5 4 3 2 3 4 5 6 6 8 8 2 3 2 2 3 3 2 1 2 3 4 5 3 3 2 4 5 3 5 7 4 4 2 2 1 3 4 1 1 4 5 5 7 9 8 6 10 14 14
1 1 1 0 0 1 1 1 1 1 1 1 0 1 1 1 1 1 1 0 1 2 2 3 5 5 6 8 8 9 6 4 1 3 4 6 7 8 7 5 5 4 4 5 6 6 7 8 4 4 3 1 2 3 1 2 3 3 1 5 4 4 3 2 3 5 3 5 5 5 4 1 1 0 2 5 3 4 4 4 5 8 11 10 8 10 13 13
2 2 1 1 1 1 1 1 1 0 1 1 0 1 1 1 1 1 1 1 1 2 3 3 5 5 6 7 8 7 3 2 3 5 6 7 8 8 7 6 5 4 4 5 8 7 6 5 4 3 2 2 1 2 1 3 4 3 2 0 2 4 4 2 2 3 4 5 3 4 3 1 2 2 3 6 5 5 5 4 6 10 12 13 11 11 10 10
3 3 2 1 1 2 1 1 1 1 1 1 1 1 1 2 2 1 1 1 1 1 2 3 4 5 5 6 7 4 3 2 4 7 7 7 8 7 6 4 3 4 4 7 10 6 4 5 4 0 2 3 2 3 1 3 5 5 1 2 3 3 4 3 3 2 5 5 3 3 2 1 3 2 2 3 3 4 7 7 11 13 15 15 10 9 9 9
5 4 2 2 1 1 1 2 2 1 1 1 1 1 2 2 2 2 1 1 1 1 2 3 3 4 4 4 3 3 1 2 6 9 8 8 7 6 4 3 2 2 5 7 8 5 4 5 3 1 3 2 2 2 1 4 5 3 1 2 2 1 2 5 4 3 3 3 2 2 1 4 6 3 1 4 6 5 7 8 10 12 12 11 8 8 9 9
5 4 3 3 2 2 2 2 2 1 1 1 1 2 2 3 3 2 2 1 0 1 2 2 3 3 4 4 3 3 2 3 9 10 8 8 6 4 3 2 2 1 4 4 5 5 3 2 2 2 2 0 2 2 2 4 2 1 2 1 1 3 3 4 4 5 5 3 2 1 4 7 5 2 3 5 9 6 7 7 7 9 8 8 7 7 9 8
6 5 4 4 3 3 3 3 3 2 2 2 3 3 3 2 3 2 2 1 0 1 1 2 3 1 3 4 5 2 2 4 10 10 8 7 5 5 4 2 2 1 3 4 3 5 2 1 2 1 3 0 2 1 2 4 1 2 2 3 3 5 5 2 5 6 4 3 4 5 5 6 4 2 3 3 8 7 8 7 6 8 7 7 6 6 9 9
8 7 5 5 4 3 4 4 5 4 3 4 4 4 3 2 2 2 2 1 0 0 1 2 2 2 2 4 5 2 3 5 9 9 8 7 6 6 5 4 3 2 2 3 3 4 3 3 4 2 2 1 2 3 2 1 1 1 3 4 6 5 6 4 6 6 3 2 5 7 4 4 3 2 5 5 8 8 9 8 7 7 6 7 7 6 8 9
10 8 7 6 5 4 5 4 4 5 5 5 5 4 3 2 2 2 1 0 0 0 1 2 2 2 3 3 2 4 5 7 8 9 8 7 7 6 4 4 3 2 1 3 2 3 3 4 6 4 0 1 2 3 1 1 1 2 3 2 7 6 5 7 7 5 5 2 5 6 3 5 3 6 5 8 9 7 9 8 7 7 6 6 6 6 6 9
12 11 8 7 6 6 7 5 4 6 6 5 5 3 2 2 1 1 1 0 0 0 1 1 2 2 3 1 3 6 8 8 8 7 8 7 6 5 4 4 3 2 1 1 1 2 3 3 6 4 1 3 1 0 1 0 1 0 1 1 3 6 5 7 4 6 7 2 4 6 3 6 6 7 3 8 9 8 8 7 6 6 6 6 6 5 5 8
12 12 10 10 8 7 9 7 5 7 8 6 4 2 1 1 1 1 1 1 1 0 1 1 0 2 3 1 2 5 9 8 8 8 8 8 7 6 5 4 3 2 2 1 0 2 2 2 5 4 1 3 2 0 2 3 2 0 1 1 1 2 5 7 0 8 7 1 3 7 1 6 8 6 3 6 8 10 8 7 7 6 6 6 6 6 5 6
12 11 11 12 10 9 10 8 7 8 9 7 4 1 1 1 1 1 2 1 1 1 1 1 1 2 3 3 3 5 8 7 8 9 9 9 7 6 5 5 4 3 2 1 1 1 2 3 4 3 1 1 3 3 3 4 2 1 1 3 2 2 5 6 1 8 7 1 2 6 2 7 8 5 6 5 6 8 8 8 8 7 7 7 6 6 5 5
13 12 11 12 11 11 10 8 8 8 7 6 3 1 2 2 2 3 3 2 2 2 2 2 1 3 1 2 1 4 6 6 8 10 10 9 6 6 7 7 5 4 2 2 3 2 3 4 3 2 1 2 4 5 3 4 4 2 2 3 2 2 4 4 2 4 7 3 1 3 3 4 5 4 7 6 7 7 7 8 9 8 8 8 6 6 5 5
15 13 12 12 11 10 9 9 9 8 6 3 1 3 3 3 3 3 3 3 3 3 2 2 1 1 0 1 1 3 5 7 9 11 10 9 7 9 9 6 4 5 4 4 3 2 3 3 1 1 2 2 2 5 4 2 4 4 0 3 4 3 2 1 4 4 5 6 3 5 4 6 6 4 6 8 8 8 7 9 10 9 9 8 7 7 6 7
16 14 13 12 11 9 9 9 8 8 3 2 4 4 5 5 4 4 4 5 4 3 1 2 1 1 3 3 3 3 4 9 11 11 11 10 10 10 7 4 5 6 5 4 3 2 2 3 2 1 2 1 1 5 3 4 4 2 3 2 3 3 2 3 3 2 6 5 4 5 6 10 11 6 6 8 8 9 10 10 9 10 10 8 8 8 7 8
16 15 14 13 11 9 9 8 7 6 1 5 6 7 7 5 3 2 3 4 3 2 1 3 3 2 2 3 3 4 7 10 10 9 11 10 10 9 4 3 6 6 4 2 2 0 2 3 4 2 1 3 5 6 7 8 7 6 5 4 4 3 4 4 4 5 7 5 5 7 7 10 11 9 8 8 8 9 10 7 6 8 8 8 8 7 8 8
17 16 15 14 12 9 8 9 6 3 3 5 5 6 5 3 2 1 1 1 4 5 2 4 7 3 1 1 4 8 9 8 4 5 11 10 9 8 2 2 4 4 2 4 2 1 3 3 2 4 7 8 8 9 9 8 6 4 3 2 4 4 5 4 3 5 5 4 6 8 8 9 9 9 10 8 8 9 9 8 8 8 8 9 9 9 9 8
19 17 15 14 12 9 8 8 5 4 5 3 3 2 2 3 2 1 2 3 9 12 7 5 9 5 0 5 11 13 7 3 2 3 12 11 9 8 2 2 4 0 2 4 2 0 3 4 6 8 9 8 8 9 9 7 6 6 4 4 4 3 5 5 3 3 3 3 6 5 5 9 9 9 9 5 7 10 12 12 12 11 10 9 10 10 8 6
21 19 16 14 12 10 8 7 4 7 8 3 1 2 1 1 3 2 2 2 9 14 13 9 8 6 2 6 14 13 4 2 1 3 10 10 6 5 2 3 5 4 3 3 3 0 2 4 8 11 8 6 6 7 7 7 7 7 4 2 4 4 4 5 3 2 0 3 4 5 5 8 10 9 9 7 9 11 14 16 15 13 12 10 10 10 8 8
22 21 18 15 13 10 7 5 4 7 10 6 5 5 1 1 3 3 3 0 6 8 9 8 7 8 5 3 11 11 3 4 5 5 11 10 4 5 5 5 5 4 3 4 5 4 3 5 10 11 7 5 7 7 5 5 4 4 4 3 4 4 2 3 5 3 2 2 2 5 6 7 9 8 9 10 10 9 10 13 13 11 12 13 13 12 12 13
23 22 19 16 13 9 7 6 4 9 12 9 10 9 4 2 3 2 2 0 4 5 7 12 9 7 9 7 12 13 3 4 6 6 14 12 4 3 5 6 6 4 4 7 9 7 7 7 6 7 8 8 7 7 6 5 3 3 4 5 4 4 5 6 4 3 3 4 2 3 6 6 7 8 10 8 5 7 8 9 10 10 10 10 10 10 12 13
25 23 21 18 14 10 9 8 7 12 13 10 14 14 9 4 2 1 1 1 4 4 4 11 7 6 12 12 14 11 1 4 4 8 18 16 9 4 3 4 4 5 7 8 8 8 9 8 2 4 6 8 7 7 6 7 4 4 4 7 8 7 7 7 3 4 4 6 3 2 3 6 4 5 9 5 2 6 7 8 12 12 9 8 9 10 9 9
27 24 23 21 16 13 12 7 10 14 11 11 15 14 12 7 2 1 2 3 5 3 2 5 5 8 13 10 10 7 1 5 3 11 21 19 11 5 3 3 1 5 8 5 5 4 5 7 6 5 6 7 8 7 6 7 6 3 5 6 8 8 7 7 3 2 1 5 3 3 1 7 6 4 8 7 6 9 7 7 12 12 9 9 9 9 10 10
29 27 25 24 20 19 14 6 11 15 8 11 14 15 14 11 6 4 2 3 5 3 5 3 2 7 10 11 13 8 3 4 3 7 14 13 8 2 3 6 3 4 4 3 3 4 4 8 8 8 7 7 7 5 6 7 7 4 5 4 6 6 6 6 3 2 3 3 4 2 2 6 9 6 8 8 10 12 10 10 12 10 8 8 7 8 10 11
32 30 28 27 25 25 17 8 16 19 9 5 11 18 17 14 10 3 4 1 5 3 5 1 0 3 5 10 14 8 2 3 6 3 1 4 5 1 3 8 7 7 5 5 6 4 3 8 9 10 7 6 6 5 6 9 6 5 5 5 6 6 5 3 4 1 1 2 5 3 2 4 8 5 4 4 6 10 12 14 13 10 9 8 7 8 8 9
34 32 32 30 27 26 20 12 16 21 14 7 13 19 17 13 8 3 4 3 2 2 2 2 2 2 5 8 9 4 2 3 2 3 2 2 1 2 4 6 5 7 6 6 7 3 2 6 7 8 7 6 4 2 4 8 6 4 3 6 6 4 4 5 4 3 3 2 5 5 3 3 7 4 3 1 3 8 11 12 11 10 10 9 8 7 7 8
38 36 35 33 30 31 27 19 20 21 14 11 16 19 16 9 4 4 2 4 1 1 0 2 2 3 9 10 4 1 3 3 1 1 2 1 2 4 1 1 4 4 2 3 2 2 1 1 1 3 4 5 5 2 1 4 6 5 6 6 6 5 5 4 3 4 2 4 6 9 10 7 6 4 4 4 5 7 7 7 7 6 8 9 8 8 9 8
40 39 37 37 36 35 27 21 26 24 17 17 20 18 11 3 2 4 6 2 1 1 2 2 2 5 13 14 7 3 3 2 1 4 3 1 1 3 1 1 3 2 2 4 3 4 4 1 1 1 2 4 6 4 3 3 3 6 5 5 3 4 5 4 4 4 1 5 6 10 11 9 8 6 3 5 5 5 6 6 7 6 8 10 9 9 9 8
41 40 41 41 39 37 28 22 28 28 22 24 24 14 6 2 1 6 5 1 1 3 5 4 4 7 12 12 9 8 6 2 3 7 6 4 4 5 5 6 5 2 3 5 3 3 3 3 3 1 1 4 6 4 3 6 4 5 5 6 3 2 3 3 2 0 3 6 5 5 6 6 9 8 6 9 10 7 7 6 6 8 9 10 10 9 9 8
43 41 43 43 40 41 33 24 29 31 28 29 20 7 3 4 7 9 7 4 2 2 4 4 5 8 11 9 6 6 4 2 5 6 4 4 5 7 5 5 6 4 3 6 4 2 3 5 1 2 3 3 8 7 3 1 2 5 6 6 5 3 1 3 3 2 4 5 4 2 4 3 5 5 10 15 14 9 6 5 6 8 10 10 10 9 8 9
41 39 41 44 42 41 35 27 30 34 32 25 11 5 7 7 9 11 13 10 3 2 3 4 6 8 9 6 4 6 4 2 7 6 4 5 5 6 5 6 8 4 3 4 4 5 5 6 4 8 4 6 11 9 6 6 5 5 5 6 5 5 4 4 4 3 4 4 4 1 3 4 3 3 7 9 8 5 2 3 4 5 5 6 7 7 8 9
35 39 39 40 39 39 37 31 31 35 30 17 7 7 11 9 9 11 13 10 5 2 3 5 7 7 6 3 2 7 5 2 6 6 4 6 6 7 7 8 12 7 4 4 2 4 6 7 6 7 3 9 13 6 6 8 3 3 2 5 3 5 5 3 3 4 2 2 3 2 3 5 4 4 5 4 5 4 4 4 2 4 3 6 7 7 8 8
30 38 34 32 34 37 39 34 32 33 25 12 8 10 11 11 11 10 7 8 9 4 5 5 5 4 5 3 3 6 3 3 6 5 3 5 4 7 8 7 12 13 9 8 3 3 4 5 3 1 2 5 9 5 5 5 4 2 2 4 4 3 5 2 3 1 2 3 4 3 4 5 3 7 7 5 4 4 4 5 4 4 4 7 7 7 8 8
23 28 25 27 34 39 41 39 35 30 18 9 11 11 9 10 12 9 4 7 12 9 6 3 3 5 6 4 4 7 3 2 6 6 3 4 4 8 10 5 9 17 15 8 3 3 5 2 3 2 1 3 2 4 2 0 4 6 4 6 2 2 1 2 1 3 2 4 4 3 6 5 2 6 4 4 4 8 8 7 5 4 5 8 8 8 8 8
16 14 15 26 39 41 42 44 38 24 10 8 13 11 9 11 14 13 7 7 10 11 7 8 7 7 8 7 5 8 6 4 6 6 4 4 5 8 13 7 7 17 17 8 2 3 4 2 3 1 2 3 2 4 3 3 2 5 4 5 4 2 1 2 2 2 1 4 5 2 6 6 6 6 1 5 8 12 11 8 6 7 9 9 8 8 8 7
14 6 7 24 38 40 44 46 33 13 4 9 13 10 10 14 14 10 5 5 7 10 11 13 10 6 7 8 7 8 10 8 9 7 5 6 5 6 13 10 7 14 16 11 6 3 3 4 3 1 1 1 1 2 5 2 1 2 1 3 2 2 4 4 3 3 3 3 4 3 3 4 6 7 7 10 12 14 12 9 9 12 12 10 9 9 9 9
11 4 3 19 35 39 42 36 18 5 4 9 12 7 6 8 7 4 5 6 6 6 10 14 11 8 8 9 8 8 9 7 9 8 5 6 5 5 9 10 6 10 15 14 9 2 2 3 3 2 2 1 2 4 9 10 7 3 3 5 3 1 2 1 2 2 4 3 3 4 6 5 3 5 9 12 12 13 11 10 11 12 11 10 10 10 10 10
6 5 3 18 35 41 36 18 6 7 7 7 11 10 5 2 3 6 10 11 7 3 4 8 11 11 9 9 8 8 7 5 7 7 5 7 7 5 7 10 10 10 11 11 9 5 3 3 3 2 1 4 5 6 7 10 9 8 7 9 8 5 4 2 4 2 3 3 4 3 7 8 3 3 6 9 11 11 10 10 11 10 11 11 11 11 11 11
3 6 6 23 42 42 24 7 5 8 8 8 11 9 4 2 2 5 9 11 10 6 2 3 8 11 10 8 7 7 8 6 8 8 6 10 11 7 8 11 13 14 12 10 12 8 3 3 3 3 4 5 6 5 2 2 4 4 3 5 7 7 7 6 6 4 1 3 3 2 6 8 2 1 3 5 7 7 8 9 8 8 9 10 10 10 10 9
4 6 7 29 51 41 14 8 11 9 9 11 9 4 3 4 4 4 7 10 10 7 5 3 5 8 9 8 7 9 9 7 10 13 9 9 10 7 8 12 13 14 11 9 9 4 3 3 3 1 2 2 4 5 5 4 4 2 2 4 6 7 6 5 4 3 2 4 4 2 7 7 1 1 2 2 3 2 1 5 8 7 6 8 10 10 10 9
5 5 2 25 51 39 12 9 11 8 10 10 9 9 7 4 6 8 9 11 10 8 9 8 6 5 6 6 7 9 12 9 10 14 10 6 7 7 11 15 14 13 10 7 8 6 3 4 4 2 2 3 3 3 3 2 1 3 4 6 8 7 5 2 1 2 4 7 7 5 10 8 1 3 3 3 4 3 3 3 5 7 6 7 8 8 8 9
4 4 1 13 31 24 10 10 11 9 11 13 12 15 13 8 7 11 11 10 9 8 9 11 8 3 1 3 4 6 12 13 10 9 8 6 5 4 10 16 16 13 10 9 12 10 6 5 6 6 7 8 7 5 4 3 3 2 4 7 11 13 12 8 2 4 9 6 9 9 12 6 2 4 5 4 3 1 5 6 4 6 7 7 7 8 8 9
3 4 2 5 10 9 7 10 13 11 13 14 11 11 15 14 10 11 10 9 9 10 10 8 6 4 4 5 5 6 11 12 7 5 7 8 4 2 4 13 16 13 9 10 11 7 3 4 9 12 12 13 12 6 6 9 7 7 9 11 13 15 14 9 5 9 8 3 6 15 13 10 9 4 5 7 3 5 7 5 5 6 6 7 8 9 9 9
3 4 5 4 4 8 8 7 10 12 14 16 10 8 16 18 12 9 10 10 10 11 11 8 6 8 10 11 10 10 11 8 5 6 8 7 4 3 1 5 10 10 8 10 9 6 4 4 11 15 15 16 16 8 10 14 13 14 14 13 14 14 14 13 14 15 7 5 11 16 9 14 19 10 8 9 6 6 8 8 8 7 6 7 7 8 9 9
4 3 4 3 2 7 9 7 8 12 16 17 12 10 16 19 14 10 10 13 13 11 8 9 11 15 18 18 14 11 10 9 7 8 7 5 3 1 2 2 2 3 5 7 7 5 4 6 10 13 15 17 18 12 11 13 12 12 14 15 16 16 17 20 22 19 10 8 18 15 10 17 21 10 10 11 9 11 12 10 7 5 6 7 8 9 10 10
4 3 2 2 2 4 5 4 4 8 14 16 12 13 16 19 20 16 11 10 12 12 10 10 16 21 21 18 14 12 12 11 12 12 8 6 5 4 3 1 1 2 4 5 5 2 3 6 7 10 13 17 19 14 10 10 8 8 11 15 17 19 23 24 22 19 14 15 24 19 13 19 16 7 10 12 10 9 6 4 5 7 8 9 10 11 11 12
3 2 2 1 3 3 2 3 3 5 9 10 11 13 15 18 22 18 13 12 13 14 16 17 19 21 21 19 17 17 17 17 19 18 11 8 6 5 5 4 3 2 2 4 3 1 2 4 3 5 7 13 17 13 8 9 9 9 10 14 18 21 21 18 16 15 15 19 25 20 15 18 11 6 7 7 4 3 3 6 8 9 10 10 11 11 12 13
6 3 1 2 3 4 4 3 4 5 7 8 8 10 12 17 21 17 13 15 16 14 16 22 24 18 15 18 18 19 22 21 21 16 10 10 10 7 5 5 7 7 4 4 3 2 3 2 2 4 5 11 14 10 7 7 6 7 11 19 22 19 13 11 13 15 16 19 20 15 14 17 9 6 4 3 6 8 9 10 10 8 10 12 13 13 13 13
7 4 1 2 4 5 5 3 5 6 6 6 7 7 7 10 13 14 10 9 12 14 14 20 24 14 9 16 20 20 18 14 11 8 5 7 8 7 5 5 9 10 8 6 3 2 5 4 2 4 6 13 12 7 8 4 3 6 15 23 23 16 11 11 13 16 16 16 14 13 16 17 7 6 7 6 8 10 10 10 9 9 10 11 13 13 13 12
Wind_Direction
214 212 213 227 285 276 257 248 203 193 189 186 174 170 168 158 177 188 202 212 226 252 270 289 297 310 315 323 325 323 332 342 350 11 37 297 296 268 188 169 138 107 79 17 358 359 358 3 341 1 16 356 27 7 359 8 52 56 75 79 59 205 59 285 179 163 155 147 192 212 117 119 165 278 99 35 56 92 67 57 60 44 60 97 117 120 105 112
213 205 199 21 354 320 306 305 192 185 173 155 150 171 174 163 178 188 196 197 213 246 268 290 305 311 316 324 319 322 333 338 355 34 31 339 11 151 164 152 131 115 49 18 9 7 9 350 335 7 38 24 339 17 13 344 62 73 102 84 170 192 73 257 146 105 124 152 178 172 104 120 167 181 109 99 288 114 91 49 65 70 68 99 117 115 105 104
200 192 169 99 358 352 356 354 19 37 54 126 147 160 171 163 163 166 172 177 200 245 280 293 308 310 313 317 315 324 333 343 26 30 19 77 100 117 132 130 130 113 22 31 15 358 350 316 320 357 54 34 300 50 44 357 47 87 101 80 245 204 99 28 93 89 115 145 146 134 88 113 178 174 124 176 213 136 147 162 124 131 153 148 129 116 109 101
194 187 162 125 2 1 2 1 4 15 29 95 155 157 159 145 136 136 136 133 260 286 298 298 304 303 307 308 312 324 337 18 54 276 92 107 105 105 115 113 99 67 26 28 12 348 334 316 318 2 70 18 321 49 57 345 51 64 102 147 225 168 94 5 90 91 79 103 125 138 88 90 248 179 150 155 112 282 199 200 194 179 164 158 153 123 112 104
209 196 160 296 9 354 358 4 350 15 23 14 107 140 136 115 99 82 93 45 340 317 304 300 299 296 302 304 309 325 355 54 240 218 131 126 120 112 107 92 75 55 38 23 356 337 323 314 342 42 62 35 345 39 12 286 93 60 73 176 195 108 113 239 112 89 75 79 98 119 105 147 237 190 170 152 177 231 203 211 192 159 150 151 147 127 114 106
227 217 182 252 246 257 264 249 272 12 358 349 4 61 73 43 46 38 24 4 340 315 305 298 293 293 302 305 312 328 36 100 227 178 144 139 128 117 103 86 70 36 25 7 348 341 325 331 22 35 56 71 83 109 235 299 84 86 303 97 48 84 135 206 113 83 87 87 94 134 154 161 79 305 225 165 195 204 158 142 126 126 138 140 131 122 114 112
232 243 234 260 252 250 250 254 262 235 335 355 8 29 12 342 12 9 4 356 321 311 302 292 292 293 307 317 323 353 97 192 208 168 158 145 133 118 102 85 60 23 14 6 1 359 352 15 20 224 74 54 108 131 147 345 66 98 301 340 6 67 125 149 146 135 105 117 171 132 99 157 147 235 255 175 196 156 137 122 115 119 127 129 122 118 120 122
227 243 258 272 280 312 284 272 293 282 303 348 351 1 344 329 342 342 350 342 316 306 283 282 294 299 324 339 351 20 42 219 180 168 163 145 139 125 112 100 87 27 16 6 1 2 4 25 10 51 60 35 110 101 47 26 32 79 130 297 332 4 158 154 151 161 148 175 190 94 341 235 195 188 288 208 183 149 138 124 118 120 118 122 123 124 124 123
238 239 249 267 287 330 318 293 294 277 261 297 301 299 308 315 325 333 330 325 321 269 273 280 289 305 340 1 68 47 312 198 166 169 163 148 148 145 152 143 134 53 15 347 348 8 9 40 7 58 98 222 89 74 64 66 16 199 149 305 336 298 261 167 167 188 187 203 152 127 265 260 240 204 284 208 172 159 134 128 130 123 120 127 131 134 131 129
250 251 248 257 268 297 311 299 282 270 251 242 258 272 280 300 321 326 319 328 341 267 281 283 288 331 2 25 73 74 254 176 167 171 168 163 164 168 187 187 155 118 12 336 7 41 68 79 333 132 135 23 50 72 85 98 182 202 98 352 303 271 276 191 205 215 190 213 176 176 242 272 289 209 252 213 164 157 133 140 148 129 135 138 132 137 136 134
251 253 254 257 259 270 291 294 277 261 248 242 249 262 279 304 323 322 326 337 337 300 298 300 315 351 21 65 93 179 203 174 172 170 174 178 177 186 194 190 175 153 25 3 35 57 64 12 357 40 97 42 44 39 34 102 156 130 71 347 302 288 294 240 226 227 169 224 186 165 236 286 343 237 223 183 162 158 142 153 156 139 145 142 135 136 137 136
256 252 256 259 257 258 270 286 286 268 253 249 249 250 270 295 314 316 326 347 322 353 299 319 344 352 32 81 147 210 193 178 172 164 170 175 178 190 183 176 173 162 88 38 47 41 39 16 35 62 112 114 80 42 9 251 115 97 81 340 301 335 314 245 227 207 155 199 173 134 312 293 225 235 217 157 158 154 143 156 159 151 153 147 142 138 142 139
260 258 259 261 253 248 260 273 295 289 268 251 249 250 262 284 335 341 336 123 131 334 280 318 359 20 55 110 228 206 189 177 167 159 161 168 174 176 165 174 180 183 219 63 55 28 46 29 58 84 150 97 103 60 114 329 83 354 75 146 307 359 316 258 223 165 149 176 152 123 313 275 243 249 201 152 155 142 145 167 167 159 157 156 153 145 153 147
263 262 256 257 248 239 256 264 286 297 287 267 249 256 290 357 28 30 91 117 123 119 275 262 304 53 74 254 253 192 183 168 162 162 157 161 158 150 148 161 171 178 202 175 12 22 66 39 57 72 51 97 139 119 30 10 62 304 341 65 5 16 288 297 326 150 154 235 118 110 235 262 275 275 207 177 162 149 161 182 176 170 168 165 164 155 161 160
260 263 259 261 252 237 250 265 281 295 294 280 261 286 8 88 99 103 119 131 138 197 220 266 219 96 52 292 266 179 180 174 171 168 161 161 152 143 141 141 141 133 155 176 151 112 96 58 61 78 344 16 75 64 19 350 357 63 23 320 340 165 264 315 26 156 157 261 101 114 203 268 277 251 204 199 176 162 170 186 185 179 178 174 174 166 164 164
253 258 264 270 265 248 253 273 280 289 297 286 276 65 107 136 131 129 137 131 131 164 116 42 204 133 71 283 233 174 193 196 182 174 169 168 164 147 134 128 117 110 120 119 113 124 86 58 59 107 99 43 78 84 44 11 343 345 140 255 267 182 269 320 302 205 154 132 182 183 219 272 276 222 193 198 189 179 178 193 195 188 186 181 179 176 169 166
251 254 260 271 274 257 257 274 279 291 300 280 161 111 131 131 130 133 125 123 137 144 115 36 20 113 224 202 195 217 199 186 180 180 176 166 159 148 133 121 119 115 100 83 82 71 47 52 75 88 62 68 113 96 60 8 307 315 153 237 252 208 226 272 295 277 145 136 202 225 238 251 266 237 198 203 192 188 196 200 199 194 191 187 182 181 178 174
251 254 256 265 273 260 252 265 283 298 301 148 120 116 121 116 122 126 119 130 126 84 9 296 63 63 262 213 189 200 163 167 172 176 177 161 149 153 142 120 132 115 82 48 24 41 32 25 72 65 20 10 157 111 114 223 211 199 182 208 267 270 227 208 259 247 158 162 199 203 240 253 263 263 222 213 195 197 212 208 204 200 192 189 186 185 184 179
251 253 254 261 273 267 245 248 279 293 161 122 122 118 106 90 87 115 127 126 123 110 206 223 161 136 238 218 164 115 123 147 157 170 176 161 153 165 156 124 126 104 88 57 339 134 104 41 58 99 219 221 200 170 184 206 183 174 179 172 206 255 273 229 233 223 171 174 218 205 224 246 254 257 241 223 202 206 224 227 221 210 197 193 192 190 187 184
250 251 252 255 266 275 243 233 262 254 155 118 114 113 103 79 55 326 246 167 212 214 188 188 187 172 110 161 127 117 123 130 134 177 174 164 155 152 128 88 95 67 105 149 202 226 116 114 165 190 211 211 203 201 206 208 197 207 217 215 214 224 273 267 253 247 169 158 238 223 228 250 250 253 249 225 199 210 228 233 227 213 203 197 195 195 187 182
247 246 250 250 256 274 247 228 238 196 168 126 94 102 130 135 132 201 228 246 249 248 262 227 203 224 321 157 156 144 130 100 38 175 171 168 151 142 154 92 106 201 222 155 153 355 118 168 216 220 217 207 203 210 217 223 229 244 244 256 268 243 261 272 267 260 181 174 261 258 252 264 259 256 258 218 185 214 220 219 223 214 207 203 196 195 180 158
245 243 245 245 248 265 248 224 214 188 179 172 221 250 271 144 128 139 155 272 266 242 243 247 233 255 270 167 173 162 112 90 124 206 178 166 151 161 177 112 134 208 213 113 90 130 189 228 235 231 223 206 224 229 214 219 226 233 225 215 257 257 274 293 307 314 195 186 260 285 274 266 263 258 257 225 201 220 217 211 217 209 203 204 195 188 170 154
242 240 240 240 240 252 240 208 194 192 190 196 218 213 242 80 114 105 138 266 286 238 222 228 228 229 213 185 184 174 151 159 166 227 190 164 158 180 151 138 171 192 163 146 155 171 206 245 235 225 216 204 239 256 221 209 224 214 182 163 235 252 262 285 297 302 279 229 253 295 289 267 266 264 256 238 219 229 229 219 223 214 206 205 196 187 174 168
237 236 236 233 231 238 215 184 187 201 200 216 227 201 141 112 138 100 124 231 278 253 213 204 205 204 195 191 183 178 196 189 165 195 190 169 145 164 154 163 174 172 196 193 185 194 213 228 217 191 199 206 222 245 213 191 248 255 192 185 218 239 221 229 273 320 328 326 332 332 311 276 254 251 255 257 235 240 242 227 230 232 221 205 191 189 180 174
232 231 231 224 223 217 185 172 201 206 201 227 233 202 165 179 218 95 87 349 276 277 237 203 201 201 189 177 174 171 184 226 192 172 181 177 156 145 178 180 163 185 209 200 192 221 231 230 217 154 195 209 209 222 201 176 212 276 238 205 212 224 229 238 296 17 7 321 312 59 319 282 262 241 254 285 285 243 238 221 226 227 217 196 185 186 180 174
229 228 224 217 215 194 172 184 210 200 202 233 227 196 179 183 199 219 96 25 279 259 171 181 186 188 179 164 156 137 61 248 220 157 171 183 178 143 167 185 145 197 198 184 196 238 221 202 205 196 193 199 206 223 216 174 165 250 248 205 208 219 232 245 266 27 280 269 288 91 162 274 285 258 250 260 257 252 246 233 233 226 212 203 191 182 175 172
227 225 218 214 206 186 176 191 191 180 196 239 215 185 185 188 203 238 78 16 278 189 143 188 191 171 168 163 152 132 217 217 97 144 169 185 198 129 163 187 164 193 181 147 230 259 168 170 191 191 180 187 198 218 220 167 144 231 246 170 170 196 216 226 193 176 218 255 319 4 131 271 281 261 241 235 243 259 259 246 243 230 216 210 195 182 177 175
225 221 215 211 205 194 188 167 171 181 195 218 181 173 184 194 205 207 90 267 270 125 130 231 155 135 139 160 157 142 239 153 114 195 194 159 195 65 191 197 177 187 180 161 217 269 156 167 182 178 176 190 198 216 197 155 149 240 230 134 125 150 159 134 115 138 310 4 306 292 111 269 273 262 250 226 225 253 254 245 243 229 212 203 193 184 176 173
222 218 214 209 204 203 203 184 180 193 196 160 159 171 176 185 189 84 83 215 248 87 129 151 128 123 117 149 166 146 34 41 126 226 7 108 169 43 190 199 161 178 200 194 207 250 189 184 180 165 177 197 195 222 173 160 182 216 142 89 68 72 76 71 83 77 27 333 247 227 166 248 269 245 212 204 208 237 245 246 244 222 203 195 186 179 170 167
221 216 212 204 199 200 204 214 210 196 184 167 168 169 163 165 152 97 171 222 215 76 111 131 157 164 147 150 174 142 84 34 20 99 56 94 13 17 163 163 83 138 232 304 246 250 290 248 182 152 174 176 144 91 63 175 176 138 90 60 39 22 32 40 45 72 37 277 226 203 192 204 269 266 194 206 215 216 228 250 252 212 186 189 185 179 174 169
221 216 209 201 199 194 193 216 213 191 181 178 164 156 154 127 78 164 200 245 11 161 135 150 176 153 158 159 167 173 124 62 139 143 140 139 53 30 54 72 65 83 306 318 317 314 340 353 238 223 162 119 98 78 9 3 111 108 90 80 62 350 14 20 4 53 220 255 221 208 198 192 236 259 238 254 250 214 207 227 235 209 192 193 189 183 177 169
222 216 208 204 202 195 193 206 194 179 182 178 159 149 161 135 196 218 215 77 23 197 160 167 186 168 169 170 174 172 146 135 176 163 161 157 171 187 189 188 168 157 244 231 253 317 309 239 219 321 292 135 114 98 12 356 29 94 108 111 118 291 356 1 311 165 227 253 246 212 187 200 237 250 261 268 269 252 225 219 215 200 197 196 189 183 175 166
223 217 209 205 202 198 202 199 179 174 177 173 161 149 156 173 205 216 216 198 204 197 146 148 169 166 168 172 181 165 129 151 178 169 164 148 176 210 230 232 195 181 197 187 192 211 271 295 241 170 284 190 157 159 176 246 181 149 141 140 158 173 217 256 243 252 257 262 276 194 159 234 272 261 241 244 258 262 236 233 227 201 195 193 185 175 167 166
225 218 209 206 204 203 204 195 180 175 169 165 164 155 162 196 214 208 216 219 200 101 108 134 141 149 168 178 180 162 145 196 176 159 158 150 173 215 234 248 223 204 103 148 185 185 212 284 208 183 214 189 185 189 167 144 160 180 153 137 157 160 180 221 205 220 255 272 294 282 159 201 216 248 240 241 271 295 299 279 245 206 189 168 157 155 159 170
229 220 212 207 204 204 202 197 188 176 165 161 172 181 182 201 216 214 219 211 183 98 84 120 122 136 188 227 210 177 161 192 177 158 170 176 187 200 197 212 208 189 137 173 213 166 197 258 225 189 166 170 188 194 125 115 147 224 122 116 178 185 183 226 210 188 196 290 283 220 215 221 209 260 268 259 292 318 336 321 203 174 150 133 147 162 168 175
227 217 213 205 203 204 198 199 198 183 170 163 176 193 202 204 207 213 212 188 188 174 104 117 112 131 195 219 227 205 158 109 164 169 203 205 214 208 201 209 197 189 183 180 186 153 181 273 271 120 63 175 190 179 142 156 177 169 137 170 201 183 166 210 276 340 66 274 257 197 246 289 304 275 251 215 251 280 297 289 215 183 158 157 174 178 177 180
225 212 208 203 204 203 196 197 201 192 181 174 185 197 209 217 220 216 185 173 187 170 125 168 180 157 187 199 202 205 178 104 167 180 191 197 231 214 205 219 191 195 202 186 186 188 161 253 299 110 138 250 208 121 95 26 140 133 182 199 149 56 102 126 260 342 20 263 266 205 236 265 262 268 262 162 219 256 254 242 226 209 184 188 194 185 185 182
232 211 209 211 206 201 196 194 195 197 193 186 198 203 199 214 224 216 191 160 175 172 171 212 203 165 181 193 188 188 183 172 177 184 182 194 238 205 189 203 196 197 205 193 211 237 154 192 298 84 173 267 7 108 104 6 93 134 190 189 126 124 202 126 172 225 197 254 285 247 230 234 209 222 220 166 207 235 239 222 211 215 204 202 199 187 186 176
231 216 227 216 207 199 194 190 187 196 211 190 202 209 202 214 222 215 187 154 175 182 195 217 213 186 190 187 174 178 188 186 173 178 191 194 231 206 181 189 199 195 196 188 199 222 164 197 254 323 225 246 16 133 167 193 334 45 106 164 125 140 173 166 177 170 162 225 280 276 242 241 220 200 184 195 207 218 222 208 210 220 210 201 196 186 185 183
222 233 241 202 200 195 189 184 180 199 220 199 207 211 201 216 219 202 189 189 195 193 209 220 211 204 208 189 174 177 190 192 174 182 208 192 212 237 190 178 177 183 186 190 200 187 146 211 221 285 318 188 187 201 187 183 180 156 148 174 186 115 122 182 213 153 145 183 230 268 273 268 243 196 187 196 207 212 211 203 213 223 210 200 196 188 187 188
208 248 213 182 190 186 179 181 191 202 209 213 220 223 218 217 201 194 200 211 228 230 220 219 205 207 211 192 185 180 176 188 184 189 221 204 203 236 202 175 162 163 170 188 207 197 181 197 170 170 234 205 222 242 215 195 185 175 178 184 183 165 141 181 244 208 153 196 190 215 273 265 235 210 201 197 204 210 208 207 218 219 206 203 198 190 191 188
207 249 191 174 180 175 169 196 205 191 209 211 212 214 197 203 227 197 191 205 232 253 273 227 203 207 208 193 186 174 168 183 190 194 221 213 205 212 203 181 163 158 161 184 203 194 143 118 129 169 211 215 243 279 281 194 166 156 181 180 176 182 172 180 225 218 149 237 200 143 279 273 254 244 237 216 220 220 209 208 221 224 207 200 195 189 191 188
220 248 188 173 174 168 166 218 194 189 220 215 213 208 172 198 207 194 185 190 209 228 238 243 205 206 214 199 177 173 179 191 196 201 216 217 213 213 195 178 162 162 168 184 197 181 88 127 146 189 288 312 314 324 359 35 82 109 208 186 182 204 197 185 204 175 174 229 181 141 267 265 283 321 287 290 292 287 224 206 216 227 214 193 192 188 183 180
214 248 218 177 175 169 171 214 194 197 215 217 223 217 222 240 198 198 202 191 195 207 217 225 213 204 214 198 184 182 185 199 211 207 205 209 218 211 190 180 169 169 179 181 175 170 182 180 139 126 275 320 326 316 337 353 133 195 222 201 198 207 201 206 129 111 246 224 158 185 253 248 265 327 328 348 0 4 331 284 225 217 210 194 189 182 175 174
214 230 302 187 183 178 184 199 193 197 204 212 219 210 217 235 210 209 213 203 202 200 210 225 216 199 214 195 202 196 192 206 220 207 201 212 227 210 190 187 179 179 190 183 172 169 178 175 155 175 214 229 233 223 198 178 165 217 222 190 199 205 197 202 193 206 240 216 153 207 246 251 318 322 304 315 359 307 279 286 259 218 200 187 178 175 176 175
217 211 193 191 199 208 215 195 189 192 195 205 216 208 209 217 215 211 211 216 218 207 217 234 208 200 241 235 240 238 219 221 220 193 198 204 215 292 208 191 188 188 177 164 164 153 139 184 188 194 208 222 235 228 157 146 153 205 213 194 200 207 198 196 214 222 222 159 193 227 237 256 266 250 254 263 233 232 252 253 250 228 196 187 182 179 179 177
228 213 193 185 203 221 232 219 195 193 192 195 199 197 204 213 216 202 200 215 219 210 221 230 193 196 218 221 230 238 234 231 211 199 206 197 200 307 299 177 188 188 154 148 163 140 111 203 207 207 215 225 236 225 159 161 181 199 203 198 201 204 196 196 217 223 183 129 243 239 208 243 254 222 212 238 216 226 241 226 229 224 195 190 177 170 175 174
237 225 198 189 191 212 221 222 211 209 200 193 192 199 204 208 208 197 195 209 214 208 213 219 209 210 214 212 216 227 230 227 221 217 210 184 165 136 54 86 189 188 127 153 182 146 139 209 212 210 223 234 239 226 173 173 193 195 195 201 202 199 199 205 218 222 186 185 248 244 182 226 248 221 206 222 202 214 226 213 207 187 174 179 166 171 182 176
235 263 253 207 196 209 201 181 205 229 214 199 199 206 205 205 206 203 193 195 209 208 202 210 215 214 216 214 209 215 218 214 222 225 199 168 170 157 142 135 311 15 78 153 195 164 169 214 204 199 221 237 240 231 189 179 198 199 198 205 205 203 206 210 217 222 209 219 244 245 224 240 249 203 204 222 208 213 214 165 165 171 176 181 176 183 188 183
215 267 285 250 217 205 165 144 173 239 229 210 209 211 208 208 207 204 193 186 195 200 200 212 219 213 212 212 208 215 215 207 217 222 191 165 185 178 175 187 170 108 95 157 195 274 210 214 164 158 214 242 244 237 205 191 211 222 220 218 217 216 214 213 217 221 219 229 241 248 254 259 250 171 203 225 181 158 148 169 191 192 184 181 184 193 193 191
224 271 275 284 250 193 168 174 187 220 233 217 213 216 216 217 212 204 202 201 200 196 195 209 219 215 210 213 212 218 220 215 220 222 188 175 195 194 194 188 159 153 165 170 167 157 191 214 77 116 202 245 244 225 198 199 220 242 245 236 228 221 214 211 216 218 216 226 239 245 252 257 241 159 179 185 155 178 197 198 203 202 190 184 189 197 195 194
218 268 220 239 259 200 175 182 188 207 229 213 207 216 226 238 227 211 207 208 210 210 202 209 218 217 210 217 219 223 227 223 221 219 182 178 191 182 178 169 156 160 165 164 156 151 165 178 164 150 204 248 246 188 157 173 216 239 242 239 233 223 211 213 224 226 218 219 229 229 237 249 237 166 196 204 187 200 205 200 204 203 196 194 197 199 194 194